アトラス彗星

C/2022 O1 ( ATLAS )

English version
Home page
Updated on March 4, 2023

---------------------------------------------------------------------

・ プロフィール

発見日 2022年7月26日
発見光度 19.3等
発見者 Asteroid Terrestrial-Impact Last Alert System (ATLAS) search program

・ 軌道要素

Epoch 2023 Feb. 25.0 TT = JDT 2460000.5
T 2022 Feb. 15.67587 TT                                 Rudenko
q   7.4303819            (2000.0)            P               Q
z  -0.0006015      Peri.  268.89463     +0.23607097     +0.64861518
 +/-0.0000048      Node    49.91372     +0.17070118     +0.70536749
e   1.0044693      Incl.   71.04313     -0.95662511     +0.28592839
>From 185 observations 2022 July 26-2023 Feb. 26, mean residual 0".5.

・ 光度変化

        m1 = 5.5 + 5 logΔ + 10.0 log r

---------------------------------------------------------------------

軌道要素はM.P.E.C. 2023-D72に掲載されたものです。
光度グラフはComet for Windowsで作成したものです。

---------------------------------------------------------------------

Copyright(C) Seiichi Yoshida (comet@aerith.net). All rights reserved.